Weather History for KSPI - August, 2014

Change the Weather History Date:

Friday, August 15, 2014

  Actual Average Record
Temperature  
Mean Temperature 68 °F 75 °F  
Max Temperature 76 °F 85 °F 100 °F (1936)
Min Temperature 59 °F 64 °F 47 °F (1962)
Degree Days  
Heating Degree Days 0 0  
Month to date heating degree days 0 0  
Since 1 June heating degree days 3 16  
Since 1 July heating degree days 3 1  
Cooling Degree Days 3 10  
Month to date cooling degree days 107 150  
Year to date cooling degree days 801 829  
Since 1 June cooling degree days 625 725  
Growing Degree Days 17 (Base 50)    
Moisture  
Dew Point 59 °F    
Average Humidity 71    
Maximum Humidity 87    
Minimum Humidity 55    
Precipitation  
Precipitation T in 0.10 in 1.24 in (1985)
Month to date precipitation 1.54 1.61  
Year to date precipitation 27.23 24.02  
Snow  
Snow 0.00 in 0.00 in 0.00 in ()
Month to date snowfall 0.0 0.0  
Since 1 June snowfall 0.0 0.0  
Since 1 July snowfall 0.0 0.0  
Snow Depth 0.00 in    
Sea Level Pressure  
Sea Level Pressure 30.03 in    
Wind  
Wind Speed 7 mph (ESE)    
Max Wind Speed 13 mph    
Max Gust Speed 16 mph    
Visibility 10 miles    
Events Rain    
T = Trace of Precipitation, MM = Missing Value Source: NWS Daily Summary

Daily Weather History Graph

Daily Weather History Graph

Search for Another Location

Airport or City:

Trip Planner

Search our weather history database for the weather conditions in past years. The results will help you decide how hot, cold, wet, or windy it might be!

Date:

Astronomy

Aug. 15, 2014 Rise Set
Actual Time 6:10 AM CDT 7:55 PM CDT
Civil Twilight 5:41 AM CDT 8:23 PM CDT
Nautical Twilight 5:06 AM CDT 8:58 PM CDT
Astronomical Twilight 4:29 AM CDT 9:36 PM CDT
Moon 10:58 PM CDT (8/15) 11:52 AM CDT (8/15)
Length of Visible Light 14h 42m
Length of Day
13h 44m
Waning Gibbous, 69% of the Moon is Illuminated
Aug 15
Waning Gibbous
Aug 17
Last Quarter
Aug 25
New
Sep 2
First Quarter
Sep 8
Full

Hourly Weather History & Observations

Time (CDT) Temp. Dew Point Humidity Pressure Visibility Wind Dir Wind Speed Gust Speed Precip Events Conditions
12:52 AM 66.0 °F 62.1 °F 87% 30.04 in 10.0 mi East 4.6 mph - N/A   Clear
1:52 AM 66.0 °F 59.0 °F 78% 30.04 in 10.0 mi ESE 10.4 mph - N/A   Clear
2:52 AM 64.0 °F 55.0 °F 73% 30.04 in 10.0 mi East 9.2 mph - N/A   Clear
3:52 AM 61.0 °F 51.1 °F 70% 30.04 in 10.0 mi ESE 6.9 mph - N/A   Clear
4:52 AM 60.1 °F 48.9 °F 67% 30.04 in 10.0 mi ESE 8.1 mph - N/A   Clear
5:52 AM 59.0 °F 50.0 °F 72% 30.05 in 10.0 mi ESE 6.9 mph - N/A   Clear
6:52 AM 59.0 °F 52.0 °F 78% 30.07 in 10.0 mi ESE 5.8 mph - N/A   Scattered Clouds
7:52 AM 63.0 °F 50.0 °F 63% 30.07 in 10.0 mi ESE 8.1 mph - N/A   Clear
8:52 AM 64.4 °F 48.2 °F 56% 30.09 in 10.0 mi ESE 8.1 mph - N/A   Mostly Cloudy
9:52 AM 68.0 °F 52.0 °F 56% 30.08 in 10.0 mi SE 9.2 mph - N/A   Mostly Cloudy
10:52 AM 70.0 °F 55.0 °F 59% 30.07 in 10.0 mi ESE 9.2 mph - N/A   Scattered Clouds
11:52 AM 73.0 °F 57.9 °F 59% 30.06 in - North - - N/A   Clear
12:52 PM 75.9 °F 61.0 °F 60% 30.04 in 10.0 mi ESE 5.8 mph - N/A   Clear
1:52 PM 75.0 °F 63.0 °F 66% 30.04 in 10.0 mi ESE 6.9 mph - N/A   Clear
2:52 PM 75.0 °F 63.0 °F 66% 30.02 in 10.0 mi East 8.1 mph - N/A   Clear
3:52 PM 75.2 °F 64.4 °F 69% 30.01 in 10.0 mi ESE 6.9 mph - N/A   Clear
4:52 PM 75.0 °F 64.9 °F 71% 30.00 in 10.0 mi ESE 5.8 mph - N/A   Clear
5:52 PM 73.9 °F 66.0 °F 76% 29.98 in 10.0 mi ESE 6.9 mph - 0.00 in Rain Light Rain
6:52 PM 73.0 °F 66.0 °F 79% 29.97 in 10.0 mi SE 5.8 mph - 0.00 in   Mostly Cloudy
7:52 PM 72.0 °F 66.0 °F 81% 29.97 in 10.0 mi ESE 5.8 mph - 0.00 in   Partly Cloudy
8:52 PM 71.1 °F 66.9 °F 87% 29.97 in 10.0 mi Calm Calm - 0.00 in   Scattered Clouds
9:52 PM 71.1 °F 66.9 °F 87% 29.96 in 10.0 mi SSE 3.5 mph - N/A   Overcast
10:52 PM 72.0 °F 66.9 °F 84% 29.96 in 10.0 mi South 5.8 mph - N/A   Mostly Cloudy